Time,TemperatureF,DewpointF,PressureIn,WindDirection,WindDirectionDegrees,WindSpeedMPH,WindSpeedGustMPH,Humidity,HourlyPrecipIn,Conditions,Clouds,dailyrainin,SolarRadiationWatts/m^2,SoftwareType,DateUTC
2013-05-22 00:00:00,62.9,58.0,29.86,SE,137,2.0,2.0,84,0.00,,,0.00,0,Wunderground v.1.15,2013-05-22 07:00:00,
2013-05-22 00:06:00,62.9,58.0,29.85,SE,130,1.0,3.0,84,0.00,,,0.00,0,Wunderground v.1.15,2013-05-22 07:06:00,
2013-05-22 00:11:00,63.0,58.1,29.85,SE,124,1.0,2.0,84,0.00,,,0.00,0,Wunderground v.1.15,2013-05-22 07:11:00,
2013-05-22 00:17:00,63.0,58.1,29.85,SSW,207,2.0,3.0,84,0.00,,,0.00,0,Wunderground v.1.15,2013-05-22 07:17:00,
2013-05-22 00:23:00,62.9,58.0,29.85,SSE,166,2.0,2.0,84,0.00,,,0.00,0,Wunderground v.1.15,2013-05-22 07:23:00,
2013-05-22 00:28:00,63.0,58.1,29.85,SW,228,1.0,3.0,84,0.00,,,0.00,0,Wunderground v.1.15,2013-05-22 07:28:00,
2013-05-22 00:33:00,62.8,57.6,29.85,SSW,201,1.0,2.0,83,0.00,,,0.00,0,Wunderground v.1.15,2013-05-22 07:33:00,
2013-05-22 00:39:00,62.4,57.8,29.85,NW,304,1.0,2.0,85,0.00,,,0.00,0,Wunderground v.1.15,2013-05-22 07:39:00,
2013-05-22 00:44:00,62.5,57.9,29.85,NW,304,1.0,7.0,85,0.00,,,0.00,0,Wunderground v.1.15,2013-05-22 07:44:00,
2013-05-22 00:50:00,62.7,58.1,29.85,WSW,254,0.0,2.0,85,0.00,,,0.00,0,Wunderground v.1.15,2013-05-22 07:50:00,
2013-05-22 00:56:00,62.9,58.0,29.85,WSW,244,1.0,3.0,84,0.00,,,0.00,0,Wunderground v.1.15,2013-05-22 07:56:00,
2013-05-22 01:01:00,62.7,57.8,29.84,West,259,1.0,4.0,84,0.00,,,0.00,0,Wunderground v.1.15,2013-05-22 08:01:00,
2013-05-22 01:07:00,62.7,57.8,29.84,SW,218,2.0,6.0,84,0.00,,,0.00,0,Wunderground v.1.15,2013-05-22 08:07:00,
2013-05-22 01:12:00,62.6,57.7,29.84,SW,217,3.0,6.0,84,0.00,,,0.00,0,Wunderground v.1.15,2013-05-22 08:12:00,
2013-05-22 01:17:00,62.6,57.7,29.84,SSW,213,2.0,6.0,84,0.00,,,0.00,0,Wunderground v.1.15,2013-05-22 08:17:00,
2013-05-22 01:23:00,62.8,57.9,29.84,SSW,211,1.0,2.0,84,0.00,,,0.00,0,Wunderground v.1.15,2013-05-22 08:23:00,
2013-05-22 01:29:00,62.8,57.6,29.83,SE,124,1.0,2.0,83,0.00,,,0.00,0,Wunderground v.1.15,2013-05-22 08:29:00,
2013-05-22 01:34:00,62.8,57.6,29.84,ESE,110,1.0,1.0,83,0.00,,,0.00,0,Wunderground v.1.15,2013-05-22 08:34:00,
2013-05-22 01:40:00,62.8,57.6,29.83,SE,142,1.0,2.0,83,0.00,,,0.00,0,Wunderground v.1.15,2013-05-22 08:40:00,
2013-05-22 01:45:00,62.7,57.5,29.83,SE,134,1.0,2.0,83,0.00,,,0.00,0,Wunderground v.1.15,2013-05-22 08:45:00,
2013-05-22 01:50:00,62.8,57.6,29.83,SSE,162,0.0,0.0,83,0.00,,,0.00,0,Wunderground v.1.15,2013-05-22 08:50:00,
2013-05-22 01:56:00,62.9,57.7,29.83,SSE,162,0.0,0.0,83,0.00,,,0.00,0,Wunderground v.1.15,2013-05-22 08:56:00,
2013-05-22 02:02:00,62.9,57.7,29.83,SSE,162,0.0,0.0,83,0.00,,,0.00,0,Wunderground v.1.15,2013-05-22 09:02:00,
2013-05-22 02:08:00,62.9,57.7,29.83,SSE,162,0.0,0.0,83,0.00,,,0.00,0,Wunderground v.1.15,2013-05-22 09:08:00,
2013-05-22 02:13:00,63.0,57.8,29.82,WSW,246,1.0,2.0,83,0.00,,,0.00,0,Wunderground v.1.15,2013-05-22 09:13:00,
2013-05-22 02:19:00,62.9,57.7,29.82,SW,223,2.0,4.0,83,0.00,,,0.00,0,Wunderground v.1.15,2013-05-22 09:19:00,
2013-05-22 02:24:00,62.9,57.3,29.82,SW,223,1.0,2.0,82,0.00,,,0.00,0,Wunderground v.1.15,2013-05-22 09:24:00,
2013-05-22 02:30:00,62.9,57.3,29.82,ESE,121,0.0,0.0,82,0.00,,,0.00,0,Wunderground v.1.15,2013-05-22 09:30:00,
2013-05-22 02:35:00,62.9,57.3,29.82,ESE,112,0.0,0.0,82,0.00,,,0.00,0,Wunderground v.1.15,2013-05-22 09:35:00,
2013-05-22 02:41:00,63.0,57.1,29.81,SSE,153,0.0,1.0,81,0.00,,,0.00,0,Wunderground v.1.15,2013-05-22 09:41:00,
2013-05-22 02:47:00,62.9,57.0,29.81,SSE,150,1.0,3.0,81,0.00,,,0.00,0,Wunderground v.1.15,2013-05-22 09:47:00,
2013-05-22 02:52:00,62.9,57.0,29.81,ESE,122,1.0,1.0,81,0.00,,,0.00,0,Wunderground v.1.15,2013-05-22 09:52:00,
2013-05-22 02:58:00,62.9,57.0,29.81,SSW,206,1.0,2.0,81,0.00,,,0.00,0,Wunderground v.1.15,2013-05-22 09:58:00,
2013-05-22 03:03:00,62.9,57.0,29.81,SW,226,1.0,2.0,81,0.00,,,0.00,0,Wunderground v.1.15,2013-05-22 10:03:00,
2013-05-22 03:09:00,62.9,57.0,29.81,SSW,196,2.0,4.0,81,0.00,,,0.00,0,Wunderground v.1.15,2013-05-22 10:09:00,
2013-05-22 03:15:00,62.9,57.0,29.81,West,261,1.0,2.0,81,0.00,,,0.00,0,Wunderground v.1.15,2013-05-22 10:15:00,
2013-05-22 03:21:00,62.8,57.2,29.81,West,275,0.0,1.0,82,0.00,,,0.00,0,Wunderground v.1.15,2013-05-22 10:21:00,
2013-05-22 03:26:00,62.7,57.1,29.81,West,275,0.0,1.0,82,0.00,,,0.00,0,Wunderground v.1.15,2013-05-22 10:26:00,
2013-05-22 03:32:00,62.8,56.9,29.80,ESE,116,1.0,2.0,81,0.00,,,0.00,0,Wunderground v.1.15,2013-05-22 10:32:00,
2013-05-22 03:37:00,62.7,56.8,29.80,ESE,114,1.0,2.0,81,0.00,,,0.00,0,Wunderground v.1.15,2013-05-22 10:37:00,
2013-05-22 03:43:00,62.8,56.9,29.80,ESE,121,0.0,3.0,81,0.00,,,0.00,0,Wunderground v.1.15,2013-05-22 10:43:00,
2013-05-22 03:48:00,62.9,56.6,29.80,East,98,0.0,3.0,80,0.00,,,0.00,0,Wunderground v.1.15,2013-05-22 10:48:00,
2013-05-22 03:54:00,62.9,56.6,29.80,SSE,164,0.0,1.0,80,0.00,,,0.00,0,Wunderground v.1.15,2013-05-22 10:54:00,
2013-05-22 03:59:00,62.8,56.5,29.80,SW,221,1.0,3.0,80,0.00,,,0.00,0,Wunderground v.1.15,2013-05-22 10:59:00,
2013-05-22 04:05:00,62.7,56.4,29.80,SE,132,2.0,3.0,80,0.00,,,0.00,0,Wunderground v.1.15,2013-05-22 11:05:00,
2013-05-22 04:10:00,62.6,56.3,29.80,SE,145,2.0,2.0,80,0.00,,,0.00,0,Wunderground v.1.15,2013-05-22 11:10:00,
2013-05-22 04:16:00,62.5,55.9,29.80,SE,146,2.0,6.0,79,0.00,,,0.00,0,Wunderground v.1.15,2013-05-22 11:16:00,
2013-05-22 04:21:00,62.4,56.1,29.80,SE,136,3.0,4.0,80,0.00,,,0.00,0,Wunderground v.1.15,2013-05-22 11:21:00,
2013-05-22 04:27:00,62.4,55.8,29.80,ESE,112,2.0,4.0,79,0.00,,,0.00,0,Wunderground v.1.15,2013-05-22 11:27:00,
2013-05-22 04:32:00,62.4,55.8,29.80,SE,129,1.0,2.0,79,0.00,,,0.00,0,Wunderground v.1.15,2013-05-22 11:32:00,
2013-05-22 04:38:00,62.3,55.7,29.80,SE,125,1.0,4.0,79,0.00,,,0.00,0,Wunderground v.1.15,2013-05-22 11:38:00,
2013-05-22 04:43:00,62.2,55.6,29.80,ESE,117,2.0,5.0,79,0.00,,,0.00,0,Wunderground v.1.15,2013-05-22 11:43:00,
2013-05-22 04:49:00,62.2,55.6,29.80,East,99,3.0,5.0,79,0.00,,,0.00,0,Wunderground v.1.15,2013-05-22 11:49:00,
2013-05-22 04:54:00,62.1,55.5,29.80,SE,132,2.0,7.0,79,0.00,,,0.00,0,Wunderground v.1.15,2013-05-22 11:54:00,
2013-05-22 05:00:00,62.2,55.6,29.80,SSW,198,2.0,2.0,79,0.00,,,0.00,0,Wunderground v.1.15,2013-05-22 12:00:00,
2013-05-22 05:06:00,62.2,55.6,29.80,SE,146,2.0,4.0,79,0.00,,,0.00,0,Wunderground v.1.15,2013-05-22 12:06:00,
2013-05-22 05:11:00,62.2,55.6,29.80,SSW,208,2.0,3.0,79,0.00,,,0.00,0,Wunderground v.1.15,2013-05-22 12:11:00,
2013-05-22 05:17:00,62.2,55.6,29.80,South,188,1.0,5.0,79,0.00,,,0.00,0,Wunderground v.1.15,2013-05-22 12:17:00,
2013-05-22 05:22:00,62.2,55.6,29.80,South,188,1.0,1.0,79,0.00,,,0.00,0,Wunderground v.1.15,2013-05-22 12:22:00,
2013-05-22 05:28:00,62.3,55.4,29.80,SSW,200,1.0,3.0,78,0.00,,,0.00,0,Wunderground v.1.15,2013-05-22 12:28:00,
2013-05-22 05:33:00,62.2,55.3,29.80,WNW,288,1.0,2.0,78,0.00,,,0.00,0,Wunderground v.1.15,2013-05-22 12:33:00,
2013-05-22 05:39:00,62.1,55.5,29.80,SW,232,1.0,2.0,79,0.00,,,0.00,0,Wunderground v.1.15,2013-05-22 12:39:00,
2013-05-22 05:44:00,62.2,55.6,29.80,SW,223,1.0,5.0,79,0.00,,,0.00,0,Wunderground v.1.15,2013-05-22 12:44:00,
2013-05-22 05:50:00,62.2,55.6,29.80,SSW,194,0.0,3.0,79,0.00,,,0.00,0,Wunderground v.1.15,2013-05-22 12:50:00,
2013-05-22 05:56:00,62.2,55.3,29.81,SW,229,1.0,3.0,78,0.00,,,0.00,0,Wunderground v.1.15,2013-05-22 12:56:00,
2013-05-22 06:01:00,62.0,55.4,29.81,WSW,237,1.0,1.0,79,0.00,,,0.00,0,Wunderground v.1.15,2013-05-22 13:01:00,
2013-05-22 06:07:00,62.0,55.4,29.81,West,267,1.0,2.0,79,0.00,,,0.00,5,Wunderground v.1.15,2013-05-22 13:07:00,
2013-05-22 06:12:00,62.0,55.4,29.81,SW,229,1.0,1.0,79,0.00,,,0.00,5,Wunderground v.1.15,2013-05-22 13:12:00,
2013-05-22 06:18:00,62.0,55.1,29.81,WSW,241,1.0,3.0,78,0.00,,,0.00,9,Wunderground v.1.15,2013-05-22 13:18:00,
2013-05-22 06:23:00,61.9,55.3,29.81,WSW,239,2.0,2.0,79,0.00,,,0.00,11,Wunderground v.1.15,2013-05-22 13:23:00,
2013-05-22 06:29:00,61.9,55.0,29.82,SW,219,1.0,2.0,78,0.00,,,0.00,12,Wunderground v.1.15,2013-05-22 13:29:00,
2013-05-22 06:34:00,61.9,55.0,29.82,NW,318,1.0,1.0,78,0.00,,,0.00,14,Wunderground v.1.15,2013-05-22 13:34:00,
2013-05-22 06:40:00,62.0,55.4,29.82,NW,311,1.0,1.0,79,0.00,,,0.00,16,Wunderground v.1.15,2013-05-22 13:40:00,
2013-05-22 06:45:00,62.1,55.2,29.82,WNW,300,1.0,3.0,78,0.00,,,0.00,19,Wunderground v.1.15,2013-05-22 13:45:00,
2013-05-22 06:50:00,62.1,55.2,29.82,North,9,1.0,1.0,78,0.00,,,0.00,21,Wunderground v.1.15,2013-05-22 13:50:00,
2013-05-22 06:56:00,62.0,55.1,29.82,WSW,237,2.0,4.0,78,0.00,,,0.00,23,Wunderground v.1.15,2013-05-22 13:56:00,
2013-05-22 07:02:00,62.0,55.1,29.82,West,275,2.0,2.0,78,0.00,,,0.00,26,Wunderground v.1.15,2013-05-22 14:02:00,
2013-05-22 07:07:00,62.0,55.1,29.82,SW,234,1.0,2.0,78,0.00,,,0.00,30,Wunderground v.1.15,2013-05-22 14:07:00,
2013-05-22 07:13:00,62.1,55.2,29.82,West,278,0.0,1.0,78,0.00,,,0.00,32,Wunderground v.1.15,2013-05-22 14:13:00,
2013-05-22 07:18:00,62.2,55.3,29.82,ESE,113,0.0,2.0,78,0.00,,,0.00,35,Wunderground v.1.15,2013-05-22 14:18:00,
2013-05-22 07:24:00,62.2,55.3,29.83,ESE,116,2.0,4.0,78,0.00,,,0.00,39,Wunderground v.1.15,2013-05-22 14:24:00,
2013-05-22 07:29:00,62.2,55.3,29.83,SE,132,2.0,4.0,78,0.00,,,0.00,42,Wunderground v.1.15,2013-05-22 14:29:00,
2013-05-22 07:35:00,62.2,55.3,29.83,East,100,1.0,4.0,78,0.00,,,0.00,47,Wunderground v.1.15,2013-05-22 14:35:00,
2013-05-22 07:41:00,62.2,55.3,29.83,East,100,0.0,2.0,78,0.00,,,0.00,53,Wunderground v.1.15,2013-05-22 14:41:00,
2013-05-22 07:46:00,62.3,55.4,29.83,SSW,211,0.0,3.0,78,0.00,,,0.00,56,Wunderground v.1.15,2013-05-22 14:46:00,
2013-05-22 07:52:00,62.4,55.4,29.83,SSW,213,1.0,1.0,78,0.00,,,0.00,60,Wunderground v.1.15,2013-05-22 14:52:00,
2013-05-22 07:57:00,62.4,55.4,29.83,East,101,0.0,1.0,78,0.00,,,0.00,62,Wunderground v.1.15,2013-05-22 14:57:00,
2013-05-22 08:03:00,62.6,55.6,29.83,SW,220,0.0,1.0,78,0.00,,,0.00,65,Wunderground v.1.15,2013-05-22 15:03:00,
2013-05-22 08:09:00,62.8,55.5,29.83,SW,215,0.0,1.0,77,0.00,,,0.00,72,Wunderground v.1.15,2013-05-22 15:09:00,
2013-05-22 08:15:00,62.9,55.6,29.83,NNE,25,0.0,1.0,77,0.00,,,0.00,84,Wunderground v.1.15,2013-05-22 15:15:00,
2013-05-22 08:21:00,62.8,55.5,29.83,ESE,123,1.0,3.0,77,0.00,,,0.00,97,Wunderground v.1.15,2013-05-22 15:21:00,
2013-05-22 08:26:00,62.6,55.6,29.83,ESE,103,1.0,3.0,78,0.00,,,0.00,109,Wunderground v.1.15,2013-05-22 15:26:00,
2013-05-22 08:32:00,62.6,55.6,29.83,ENE,58,0.0,1.0,78,0.00,,,0.00,113,Wunderground v.1.15,2013-05-22 15:32:00,
2013-05-22 08:37:00,62.7,55.7,29.84,ENE,58,0.0,1.0,78,0.00,,,0.00,114,Wunderground v.1.15,2013-05-22 15:37:00,
2013-05-22 08:42:00,62.9,55.6,29.83,ESE,117,0.0,3.0,77,0.00,,,0.00,118,Wunderground v.1.15,2013-05-22 15:42:00,
2013-05-22 08:48:00,63.3,56.0,29.83,WSW,246,1.0,3.0,77,0.00,,,0.00,130,Wunderground v.1.15,2013-05-22 15:48:00,
2013-05-22 08:54:00,63.1,55.4,29.83,WSW,247,1.0,1.0,76,0.00,,,0.00,148,Wunderground v.1.15,2013-05-22 15:54:00,
2013-05-22 08:59:00,63.6,55.9,29.83,South,191,1.0,2.0,76,0.00,,,0.00,163,Wunderground v.1.15,2013-05-22 15:59:00,
2013-05-22 09:05:00,63.4,55.3,29.83,WNW,290,1.0,2.0,75,0.00,,,0.00,190,Wunderground v.1.15,2013-05-22 16:05:00,
2013-05-22 09:10:00,63.7,56.0,29.83,SSW,200,1.0,1.0,76,0.00,,,0.00,216,Wunderground v.1.15,2013-05-22 16:10:00,
2013-05-22 09:16:00,64.2,55.7,29.83,SE,138,1.0,2.0,74,0.00,,,0.00,221,Wunderground v.1.15,2013-05-22 16:16:00,
2013-05-22 09:21:00,64.3,55.8,29.83,WSW,251,1.0,3.0,74,0.00,,,0.00,225,Wunderground v.1.15,2013-05-22 16:21:00,
2013-05-22 09:27:00,64.7,56.2,29.84,SE,132,2.0,3.0,74,0.00,,,0.00,237,Wunderground v.1.15,2013-05-22 16:27:00,
2013-05-22 09:32:00,64.8,55.9,29.83,South,183,2.0,2.0,73,0.00,,,0.00,258,Wunderground v.1.15,2013-05-22 16:32:00,
2013-05-22 09:38:00,64.9,56.0,29.83,SW,220,1.0,2.0,73,0.00,,,0.00,278,Wunderground v.1.15,2013-05-22 16:38:00,
2013-05-22 09:43:00,65.2,56.3,29.83,SE,128,1.0,4.0,73,0.00,,,0.00,265,Wunderground v.1.15,2013-05-22 16:43:00,
2013-05-22 09:49:00,65.4,55.7,29.83,SW,231,2.0,6.0,71,0.00,,,0.00,269,Wunderground v.1.15,2013-05-22 16:49:00,
2013-05-22 09:54:00,65.2,55.6,29.83,NNE,16,3.0,8.0,71,0.00,,,0.00,276,Wunderground v.1.15,2013-05-22 16:54:00,
2013-05-22 10:00:00,65.1,55.8,29.83,ESE,117,2.0,2.0,72,0.00,,,0.00,302,Wunderground v.1.15,2013-05-22 17:00:00,
2013-05-22 10:06:00,65.6,55.9,29.83,SW,225,1.0,4.0,71,0.00,,,0.00,330,Wunderground v.1.15,2013-05-22 17:06:00,
2013-05-22 10:11:00,66.1,56.0,29.83,WSW,256,2.0,4.0,70,0.00,,,0.00,357,Wunderground v.1.15,2013-05-22 17:11:00,
2013-05-22 10:16:00,66.2,56.1,29.83,East,79,2.0,4.0,70,0.00,,,0.00,431,Wunderground v.1.15,2013-05-22 17:16:00,
2013-05-22 10:22:00,67.0,56.1,29.83,SSW,212,1.0,5.0,68,0.00,,,0.00,526,Wunderground v.1.15,2013-05-22 17:22:00,
2013-05-22 10:28:00,67.8,56.4,29.83,West,261,3.0,7.0,67,0.00,,,0.00,666,Wunderground v.1.15,2013-05-22 17:28:00,
2013-05-22 10:34:00,67.8,56.0,29.83,NW,325,3.0,4.0,66,0.00,,,0.00,868,Wunderground v.1.15,2013-05-22 17:34:00,
2013-05-22 10:40:00,68.4,56.6,29.83,South,171,3.0,6.0,66,0.00,,,0.00,362,Wunderground v.1.15,2013-05-22 17:40:00,
2013-05-22 10:45:00,68.6,56.8,29.83,SW,231,3.0,7.0,66,0.00,,,0.00,320,Wunderground v.1.15,2013-05-22 17:45:00,
2013-05-22 10:50:00,68.8,56.1,29.83,SW,217,3.0,4.0,64,0.00,,,0.00,868,Wunderground v.1.15,2013-05-22 17:50:00,
2013-05-22 10:56:00,68.3,56.1,29.83,SW,228,2.0,9.0,65,0.00,,,0.00,846,Wunderground v.1.15,2013-05-22 17:56:00,
2013-05-22 11:02:00,69.4,55.8,29.83,NE,38,2.0,3.0,62,0.00,,,0.00,793,Wunderground v.1.15,2013-05-22 18:02:00,
2013-05-22 11:07:00,69.2,56.5,29.83,NW,307,3.0,4.0,64,0.00,,,0.00,823,Wunderground v.1.15,2013-05-22 18:07:00,
2013-05-22 11:13:00,69.5,56.3,29.83,West,281,4.0,7.0,63,0.00,,,0.00,888,Wunderground v.1.15,2013-05-22 18:13:00,
2013-05-22 11:18:00,69.2,55.6,29.83,West,273,4.0,8.0,62,0.00,,,0.00,921,Wunderground v.1.15,2013-05-22 18:18:00,
2013-05-22 11:24:00,70.5,56.4,29.82,North,355,4.0,6.0,61,0.00,,,0.00,879,Wunderground v.1.15,2013-05-22 18:24:00,
2013-05-22 11:29:00,71.5,56.4,29.82,SW,223,3.0,6.0,59,0.00,,,0.00,891,Wunderground v.1.15,2013-05-22 18:29:00,
2013-05-22 11:35:00,70.9,55.4,29.82,WNW,288,3.0,5.0,58,0.00,,,0.00,881,Wunderground v.1.15,2013-05-22 18:35:00,
2013-05-22 11:40:00,69.8,55.7,29.82,SW,215,4.0,6.0,61,0.00,,,0.00,886,Wunderground v.1.15,2013-05-22 18:40:00,
2013-05-22 11:45:00,71.5,55.0,29.82,NW,319,3.0,6.0,56,0.00,,,0.00,898,Wunderground v.1.15,2013-05-22 18:45:00,
2013-05-22 11:50:00,72.0,55.4,29.82,NW,308,2.0,3.0,56,0.00,,,0.00,919,Wunderground v.1.15,2013-05-22 18:50:00,
2013-05-22 11:56:00,72.4,56.3,29.82,WSW,250,2.0,5.0,57,0.00,,,0.00,912,Wunderground v.1.15,2013-05-22 18:56:00,
2013-05-22 12:01:00,73.6,56.4,29.82,West,281,3.0,3.0,55,0.00,,,0.00,932,Wunderground v.1.15,2013-05-22 19:01:00,
2013-05-22 12:06:00,73.5,55.8,29.82,West,269,4.0,6.0,54,0.00,,,0.00,932,Wunderground v.1.15,2013-05-22 19:06:00,
2013-05-22 12:12:00,73.5,55.8,29.82,SSW,196,5.0,5.0,54,0.00,,,0.00,928,Wunderground v.1.15,2013-05-22 19:12:00,
2013-05-22 12:18:00,73.8,55.1,29.82,SSE,161,5.0,7.0,52,0.00,,,0.00,935,Wunderground v.1.15,2013-05-22 19:18:00,
2013-05-22 12:23:00,72.9,56.3,29.81,SW,227,3.0,6.0,56,0.00,,,0.00,928,Wunderground v.1.15,2013-05-22 19:23:00,
2013-05-22 12:29:00,73.1,55.5,29.81,WSW,257,3.0,6.0,54,0.00,,,0.00,932,Wunderground v.1.15,2013-05-22 19:29:00,
2013-05-22 12:34:00,73.0,55.9,29.81,WNW,285,4.0,5.0,55,0.00,,,0.00,942,Wunderground v.1.15,2013-05-22 19:34:00,
2013-05-22 12:39:00,72.4,55.3,29.81,West,268,5.0,6.0,55,0.00,,,0.00,951,Wunderground v.1.15,2013-05-22 19:39:00,
2013-05-22 12:45:00,73.0,55.9,29.81,South,181,4.0,5.0,55,0.00,,,0.00,933,Wunderground v.1.15,2013-05-22 19:45:00,
2013-05-22 12:50:00,74.8,56.5,29.80,SW,235,4.0,7.0,53,0.00,,,0.00,939,Wunderground v.1.15,2013-05-22 19:50:00,
2013-05-22 12:56:00,75.1,56.3,29.80,SW,224,4.0,8.0,52,0.00,,,0.00,940,Wunderground v.1.15,2013-05-22 19:56:00,
2013-05-22 13:01:00,74.9,56.6,29.80,SSW,195,4.0,10.0,53,0.00,,,0.00,944,Wunderground v.1.15,2013-05-22 20:01:00,